Simultaneous Nadir Overpasses (SNOs) Predictions

Prediction of SNOs between GOES-16 and NOAA-19 Satellite Orbit:

Table of predicted SNOs for the next 14.0 days since TLE Epoch: 12/17/2023
Index Date Time (GOES-16) GOES-16 Lat,Lon NOAA-19 Lat,Lon Distance(km) Time Diff (sec)
1 12/19/2023 02:11:50 0.03, -75.23 -0.68, -78.19 338.97 80
2 12/20/2023 01:57:01 0.03, -75.24 0.04, -75.24 0.88 80
3 12/21/2023 01:44:52 0.03, -75.25 0.70, -72.28 338.64 80
4 12/23/2023 14:07:12 -0.03, -75.31 0.35, -76.96 188.14 80
5 12/24/2023 13:52:22 -0.03, -75.33 -0.31, -74.00 151.13 80
6 12/25/2023 13:40:14 -0.02, -75.34 -1.03, -71.05 490.48 80
7 12/27/2023 02:15:00 0.02, -75.35 -0.77, -78.75 388.20 80
8 12/28/2023 02:02:50 0.01, -75.37 -0.10, -75.79 48.35 80
9 12/29/2023 01:48:01 0.01, -75.39 0.58, -72.83 291.72 80
